Wind_Speed
5 5 5 5 5 4 4 4 5 5 5 5 5 5 5 5 5 5 6 6 6 6 6 7 6 6 6 6 6 7 7 7 8 7 7 8 8 8 8 9 8 9 9
6 6 6 6 5 5 4 5 5 6 5 6 6 6 5 5 5 6 7 7 7 7 8 7 7 8 8 8 7 7 7 7 8 8 8 8 8 9 9 9 9 9 10
5 5 6 5 5 5 5 5 5 5 5 6 6 7 7 7 7 8 8 8 8 9 8 9 8 9 9 9 8 8 8 8 9 9 9 9 9 9 9 10 10 10 11
6 6 6 6 6 5 5 5 5 6 6 7 7 8 8 8 9 9 9 9 9 10 10 10 11 10 10 9 9 9 9 9 10 10 10 10 10 10 10 11 11 11 11
8 8 7 7 7 6 7 6 6 7 7 8 8 8 8 9 10 10 10 11 11 11 12 12 12 13 12 11 11 11 11 11 11 11 10 10 10 11 10 10 11 12 12
9 9 9 9 9 9 8 8 8 8 8 9 9 9 10 10 10 11 12 12 13 13 13 13 13 13 13 13 13 13 12 12 12 12 12 12 12 12 12 12 11 12 12
11 11 11 11 10 10 10 9 9 9 9 10 11 11 11 12 11 12 12 13 14 14 13 13 13 13 14 14 14 14 13 13 13 13 13 13 13 13 13 14 13 13 13
12 12 12 12 11 12 12 11 10 10 11 11 11 11 12 12 12 12 13 14 14 15 14 14 14 14 15 15 15 15 15 14 14 14 14 14 14 14 14 15 16 15 15
13 13 13 13 13 13 13 13 12 11 12 13 13 13 13 14 13 14 14 15 15 14 15 15 14 15 14 14 14 15 16 15 15 15 15 15 15 16 16 16 16 17 17
15 14 14 14 14 14 14 13 13 13 13 13 14 14 14 15 15 15 16 16 15 15 15 15 15 15 15 15 16 16 16 16 16 16 16 16 16 17 17 17 17 18 18
15 15 15 15 15 15 15 15 14 14 14 14 15 15 15 16 16 17 16 16 15 15 15 15 16 16 16 16 16 16 16 17 17 17 17 17 17 18 18 18 19 20 20
16 16 16 16 16 15 16 16 16 16 16 16 16 16 16 16 15 16 16 16 17 16 16 16 16 16 17 16 17 17 17 18 18 18 18 18 18 18 19 20 20 20 20
17 17 17 17 17 17 16 17 17 17 17 17 17 17 16 16 16 16 17 17 17 18 17 17 18 18 17 17 18 18 19 18 18 18 18 19 19 19 19 19 20 20 20
18 17 18 18 18 18 18 18 17 18 17 17 16 16 17 17 17 17 17 17 17 17 17 18 18 18 19 19 19 19 20 19 18 18 18 18 19 19 19 20 20 20 20
18 18 18 18 18 19 19 19 18 18 18 17 17 18 18 18 18 19 18 18 18 17 17 18 18 19 19 19 19 20 20 20 20 19 19 19 19 20 20 20 20 20 20
19 19 19 19 19 20 20 20 19 19 18 17 18 19 19 19 19 19 19 19 18 18 18 18 20 20 20 20 20 20 20 20 20 20 21 21 21 21 21 20 20 20 20
20 20 20 20 20 20 20 20 19 19 19 19 20 20 20 20 21 20 20 20 20 20 19 20 21 22 22 22 21 21 21 21 20 20 21 21 21 21 21 21 20 20 20
21 22 22 22 22 22 21 21 21 21 21 21 21 21 21 21 21 21 21 20 21 21 21 21 22 23 23 23 22 22 21 22 21 21 21 22 22 22 22 21 21 21 21
24 24 24 23 23 23 23 22 23 23 23 22 22 23 22 22 22 21 21 21 22 22 22 22 23 24 24 24 24 23 23 23 23 22 23 23 23 23 22 22 22 22 22
23 23 24 24 25 25 24 24 24 24 24 24 24 24 23 23 23 23 23 23 23 23 24 24 24 23 24 24 25 24 24 24 24 24 23 24 24 24 23 23 23 23 23
23 23 24 24 25 26 26 26 26 26 26 25 25 25 25 25 25 25 24 24 24 24 24 25 25 25 25 25 25 25 25 25 24 24 24 24 24 24 25 24 24 24 23
25 25 26 26 26 27 27 27 27 27 28 27 27 26 26 25 25 25 25 25 25 25 25 25 25 26 25 26 26 26 26 26 25 24 24 24 24 24 25 24 24 24 24
27 27 27 27 27 27 28 29 29 29 29 29 29 28 27 26 26 26 25 26 26 26 26 26 26 26 25 25 26 26 26 26 26 25 25 24 24 24 25 24 24 24 24
28 29 28 28 29 29 30 30 29 29 29 29 29 28 28 27 26 27 27 26 26 26 25 26 26 25 25 25 25 26 26 26 26 26 25 25 25 25 24 24 24 24 24
29 30 29 29 30 29 29 29 30 29 29 29 28 28 28 27 27 27 27 26 26 26 26 26 26 26 25 26 26 26 26 26 26 26 25 25 25 24 24 24 24 24 24
29 29 28 28 28 28 28 29 29 29 28 28 28 28 28 27 27 27 27 27 26 26 26 27 27 27 26 26 26 26 26 26 26 25 25 25 25 25 24 24 24 25 25
Wind_Direction
256 248 247 253 263 256 257 252 244 240 236 235 236 237 235 235 239 243 247 250 248 248 250 248 249 258 263 263 264 265 266 263 260 274 272 272 280 280 274 262 262 265 260
246 249 254 259 260 257 255 247 239 238 236 241 244 244 245 241 248 252 252 252 252 252 251 248 255 263 263 267 266 265 269 272 268 269 274 276 278 275 270 266 263 265 264
248 246 251 247 250 258 263 263 249 242 241 245 248 249 249 244 247 251 253 254 256 257 256 253 257 262 265 266 267 270 271 274 275 273 274 278 280 280 274 272 271 269 268
260 256 261 257 259 264 270 267 252 250 250 252 253 252 252 252 253 254 255 257 257 256 255 256 258 261 263 264 266 269 271 272 270 273 273 275 278 277 276 275 275 274 273
267 260 264 260 259 260 262 261 256 258 261 261 260 257 257 258 258 258 260 261 260 260 259 260 262 263 264 265 266 267 269 269 269 270 274 277 279 280 281 278 272 269 271
265 261 262 261 259 257 258 260 261 262 263 264 264 262 262 262 262 263 263 262 264 265 262 262 263 265 266 267 266 266 266 268 268 270 273 275 277 277 276 276 273 270 269
262 260 261 260 261 257 256 260 263 266 265 265 266 266 267 266 267 267 266 264 261 261 262 265 268 270 269 269 267 266 265 268 272 273 274 274 277 277 273 271 269 271 273
262 261 262 261 261 260 257 263 267 267 266 265 265 266 267 268 267 269 268 266 263 261 263 268 270 271 270 269 267 268 267 267 271 272 272 273 276 279 277 273 270 273 273
260 264 262 263 263 262 261 263 267 269 269 265 265 268 269 268 268 269 270 271 270 268 267 268 269 268 268 268 268 269 268 267 270 272 271 273 276 276 275 274 274 273 273
262 263 262 262 263 263 264 264 267 271 272 269 265 268 270 269 268 268 270 271 271 269 269 269 270 270 269 267 269 269 270 270 272 274 274 275 276 275 274 272 272 273 274
262 262 262 260 261 262 263 265 269 271 272 271 269 269 271 270 269 268 268 269 269 268 268 269 269 271 271 270 272 271 272 272 273 275 276 277 278 277 276 273 273 274 273
261 263 262 259 260 262 264 265 267 270 272 271 270 269 270 270 271 270 269 269 268 268 270 271 271 273 271 270 273 272 274 275 275 276 276 278 279 278 277 276 274 274 273
260 260 261 258 259 263 267 266 266 267 268 268 268 268 269 270 271 269 269 270 269 268 271 272 272 274 272 273 274 273 275 275 275 276 278 279 280 280 279 279 274 273 273
259 260 262 262 261 263 265 268 266 268 268 267 266 268 268 270 272 271 271 271 270 269 270 270 271 273 273 274 275 274 274 275 276 278 280 281 281 281 279 279 276 272 270
260 262 264 264 263 263 265 267 267 267 269 270 270 270 271 271 273 273 274 273 271 269 270 271 271 273 275 276 276 276 276 276 276 278 280 281 282 283 282 280 278 274 270
259 260 261 261 264 264 265 268 269 269 271 273 276 277 274 275 272 273 274 274 273 271 270 270 270 271 275 277 277 278 277 278 277 278 279 280 282 282 281 280 278 276 275
258 260 261 262 263 265 265 266 268 270 273 274 276 277 275 277 273 273 274 272 272 272 271 270 270 272 274 278 277 278 277 277 278 279 280 279 280 281 282 280 278 277 278
260 261 263 263 264 265 265 265 267 270 273 275 276 275 276 276 275 274 274 272 271 271 270 271 271 272 275 277 277 277 278 278 278 278 279 278 279 280 281 281 279 278 278
262 263 263 264 263 264 265 265 267 270 272 274 276 274 275 275 275 273 273 272 271 271 271 272 273 273 273 275 276 276 278 278 278 277 277 278 278 278 278 280 280 279 277
264 263 263 263 262 262 263 264 266 270 271 274 276 275 274 274 274 272 272 273 273 272 272 273 273 274 273 274 274 274 276 278 277 276 277 278 278 278 277 278 279 278 278
264 263 264 265 263 261 262 264 266 269 271 272 275 276 275 274 273 271 270 272 272 273 273 273 273 274 274 274 273 273 274 276 277 277 278 278 278 277 276 276 278 278 277
263 264 265 265 265 264 263 264 266 268 269 271 274 275 276 275 274 271 271 271 272 273 273 274 274 274 274 274 274 273 273 274 275 277 278 278 277 276 277 277 277 278 277
264 264 265 265 267 267 267 265 267 268 270 271 273 274 274 274 273 271 271 271 272 272 274 274 274 274 275 275 274 273 273 274 274 275 276 276 274 275 276 277 276 278 278
265 265 266 266 266 267 268 268 268 268 269 270 271 272 271 270 272 271 270 270 271 273 274 274 274 274 274 275 275 274 274 273 273 272 273 274 274 274 275 275 276 278 278
267 266 266 269 268 267 268 268 268 269 269 269 270 271 269 268 270 270 270 271 272 273 272 273 272 272 273 274 274 273 273 271 269 270 271 272 272 271 275 275 277 277 277
270 268 270 272 270 267 268 269 269 269 269 268 269 270 268 268 270 269 268 269 270 271 271 272 271 272 273 273 273 272 271 269 269 269 269 270 270 272 275 276 276 275 276
Height
5869 5868 5868 5869 5868 5868 5868 5868 5868 5868 5869 5869 5870 5870 5870 5870 5870 5871 5871 5871 5871 5871 5871 5871 5871 5871 5871 5871 5871 5871 5871 5871 5871 5871 5871 5871 5870 5870 5870 5870 5871 5871 5871
5868 5867 5867 5868 5867 5867 5867 5867 5867 5867 5868 5868 5868 5868 5869 5869 5869 5869 5869 5869 5869 5869 5869 5869 5869 5870 5870 5870 5870 5869 5869 5869 5869 5869 5869 5869 5869 5868 5868 5868 5869 5869 5869
5867 5866 5866 5866 5866 5866 5866 5866 5866 5866 5867 5867 5867 5867 5867 5867 5868 5868 5868 5868 5867 5868 5867 5867 5868 5868 5868 5868 5867 5867 5867 5867 5867 5868 5867 5867 5867 5866 5866 5866 5866 5867 5867
5865 5865 5865 5865 5865 5865 5865 5865 5865 5865 5865 5865 5865 5865 5866 5866 5866 5866 5866 5866 5866 5866 5865 5865 5866 5865 5865 5865 5865 5865 5865 5865 5865 5865 5865 5865 5865 5864 5864 5864 5864 5864 5864
5864 5863 5863 5863 5863 5863 5863 5863 5863 5864 5864 5864 5864 5864 5864 5864 5864 5864 5864 5864 5863 5863 5863 5863 5863 5863 5863 5863 5863 5863 5863 5863 5863 5863 5863 5863 5862 5862 5862 5861 5861 5861 5861
5861 5861 5861 5861 5861 5862 5861 5862 5862 5862 5862 5862 5862 5862 5862 5862 5862 5861 5861 5861 5861 5860 5860 5860 5860 5860 5860 5860 5860 5860 5860 5860 5860 5860 5860 5860 5860 5859 5859 5859 5859 5859 5859
5859 5859 5859 5859 5859 5859 5859 5859 5859 5860 5860 5860 5860 5860 5860 5859 5859 5859 5858 5858 5858 5858 5857 5857 5857 5857 5857 5857 5857 5857 5857 5857 5857 5857 5857 5857 5856 5856 5856 5856 5856 5856 5856
5857 5857 5857 5857 5857 5857 5857 5857 5857 5857 5857 5857 5858 5857 5857 5857 5856 5856 5855 5855 5855 5854 5854 5854 5854 5853 5853 5853 5853 5854 5853 5853 5853 5853 5853 5853 5853 5853 5852 5852 5852 5852 5852
5854 5854 5854 5854 5854 5854 5854 5854 5854 5854 5854 5854 5854 5854 5854 5854 5853 5853 5852 5852 5851 5851 5851 5851 5850 5850 5850 5849 5850 5850 5849 5849 5849 5849 5849 5849 5849 5849 5849 5848 5848 5848 5848
5850 5850 5851 5851 5851 5851 5851 5851 5851 5851 5851 5851 5850 5850 5851 5850 5850 5850 5849 5848 5848 5847 5847 5847 5847 5846 5846 5846 5846 5846 5846 5845 5845 5845 5845 5845 5845 5845 5844 5844 5844 5843 5843
5847 5847 5847 5847 5847 5847 5847 5847 5847 5848 5848 5847 5847 5847 5846 5846 5846 5846 5845 5845 5844 5844 5843 5843 5843 5843 5842 5842 5842 5842 5842 5841 5841 5841 5841 5841 5840 5840 5840 5839 5839 5838 5838
5843 5843 5844 5844 5844 5844 5844 5844 5844 5844 5844 5843 5843 5843 5843 5842 5842 5841 5841 5840 5840 5840 5839 5839 5839 5839 5838 5838 5838 5838 5837 5837 5837 5837 5836 5836 5836 5835 5834 5834 5833 5833 5832
5839 5840 5840 5840 5840 5840 5840 5840 5840 5840 5840 5839 5839 5839 5838 5838 5837 5837 5837 5836 5835 5835 5835 5835 5835 5834 5834 5834 5834 5834 5833 5833 5832 5832 5832 5831 5831 5830 5829 5828 5828 5827 5827
5835 5835 5836 5836 5836 5836 5836 5836 5836 5836 5835 5835 5835 5834 5834 5833 5833 5832 5832 5832 5831 5831 5831 5831 5830 5830 5830 5829 5829 5829 5829 5828 5828 5827 5827 5826 5825 5824 5824 5823 5822 5821 5821
5831 5831 5831 5831 5831 5831 5832 5832 5831 5831 5831 5830 5830 5830 5829 5828 5828 5828 5827 5827 5827 5827 5827 5826 5826 5825 5825 5824 5824 5824 5823 5823 5823 5822 5821 5821 5820 5819 5818 5817 5816 5815 5815
5826 5826 5826 5827 5827 5827 5827 5827 5827 5826 5826 5826 5825 5825 5824 5823 5823 5823 5822 5822 5822 5822 5821 5821 5821 5820 5820 5819 5819 5819 5818 5818 5817 5817 5816 5815 5814 5814 5813 5812 5811 5810 5809
5821 5821 5822 5822 5822 5822 5822 5822 5821 5821 5821 5821 5820 5819 5819 5818 5818 5817 5817 5817 5816 5816 5816 5816 5815 5815 5814 5814 5813 5813 5813 5812 5812 5811 5810 5810 5809 5808 5807 5806 5805 5804 5803
5816 5816 5816 5816 5817 5817 5817 5816 5816 5816 5816 5815 5815 5814 5813 5812 5812 5811 5811 5811 5810 5810 5810 5810 5809 5809 5808 5808 5807 5807 5807 5806 5806 5805 5804 5804 5803 5802 5801 5800 5799 5798 5797
5810 5810 5810 5810 5811 5811 5811 5811 5811 5810 5810 5810 5809 5808 5807 5806 5806 5805 5805 5804 5804 5804 5804 5804 5803 5803 5802 5801 5801 5801 5800 5800 5799 5799 5798 5797 5796 5795 5795 5794 5793 5792 5791
5803 5803 5803 5804 5804 5804 5804 5804 5804 5804 5804 5803 5803 5802 5801 5800 5799 5799 5798 5798 5798 5797 5797 5797 5797 5796 5796 5795 5794 5794 5794 5794 5793 5792 5792 5791 5790 5789 5788 5787 5786 5786 5785
5797 5797 5797 5797 5797 5797 5797 5797 5797 5797 5797 5797 5796 5795 5794 5793 5792 5792 5792 5791 5791 5791 5790 5790 5790 5789 5789 5788 5788 5788 5787 5787 5786 5785 5785 5784 5783 5782 5781 5781 5780 5779 5778
5790 5790 5790 5790 5790 5790 5790 5790 5790 5790 5790 5789 5789 5788 5787 5786 5785 5785 5785 5784 5784 5784 5783 5783 5782 5782 5782 5781 5781 5780 5780 5780 5780 5779 5778 5777 5776 5775 5774 5774 5773 5772 5772
5783 5783 5783 5783 5782 5782 5782 5782 5782 5781 5781 5781 5781 5780 5779 5779 5778 5778 5777 5777 5777 5777 5776 5776 5775 5775 5775 5774 5774 5773 5773 5772 5772 5772 5771 5770 5769 5769 5768 5767 5766 5765 5765
5775 5775 5775 5774 5774 5774 5774 5773 5773 5773 5773 5773 5773 5772 5772 5772 5771 5770 5770 5770 5769 5769 5769 5768 5768 5768 5768 5767 5766 5766 5765 5765 5765 5764 5764 5763 5762 5762 5761 5760 5759 5759 5758
5767 5767 5766 5766 5765 5765 5764 5764 5764 5764 5764 5764 5764 5764 5764 5764 5763 5762 5762 5762 5762 5762 5761 5761 5761 5760 5760 5759 5759 5758 5758 5757 5757 5757 5756 5756 5755 5755 5754 5754 5753 5752 5751
5759 5759 5758 5758 5757 5757 5756 5756 5755 5755 5755 5755 5755 5755 5756 5756 5755 5754 5754 5754 5754 5754 5753 5753 5752 5752 5752 5751 5751 5750 5750 5749 5749 5749 5749 5749 5748 5748 5748 5747 5746 5745 5744